Location: Gloden
(48.4833°N, 15.3167°E)
Time: 01:48:46
(UTC+00:00)

CZ-2C R/B - Pass Details

Date: 15 December 2019
Orbit: 639 x 705 km, 98.4° (Epoch: 25 January)

Event Time Altitude Azimuth Distance (km) Brightness Sun altitude
Rises 05:24:05 0° 159° (SSE) 3,069 7.8 -12.4°
Reaches altitude 10° 05:26:19 10° 158° (SSE) 2,162 7.0 -12.1°
Maximum altitude 05:31:03 77° 74° (ENE) 730 4.0 -11.3°
Drops below altitude 10° 05:35:52 10° 348° (NNW) 2,188 6.0 -10.6°
Sets 05:38:08 0° 348° (NNW) 3,109 6.8 -10.3°
